KG5RGN-13 Weather Reports


time (UTC)temp
C
wind
direction
speed
KPH
gust
KPH
rain 1hr
cm
rain 24hr
cm
rain mn
cm
humidity
%
barometer
mb
20260505101240 11 251 6.4 16.1 0.00 0.00 0.00 100
20260505100931 11 300 9.7 17.7 0.00 0.00 0.00 100
20260505100740 11 300 9.7 17.7 0.00 0.00 0.00 100
20260505100240 11 326 6.4 19.3 0.00 0.00 0.00 100
20260505095740 11 257 9.7 19.3 0.00 0.00 0.00 100
20260505095240 11 258 6.4 16.1 0.00 0.00 0.00 100
20260505094740 11 268 12.9 17.7 0.00 0.00 0.00 100
20260505094240 11 248 3.2 27.4 0.00 0.00 0.00 100
20260505093740 12 320 11.3 24.1 0.00 0.00 0.00 100
20260505093240 11 302 8.0 16.1 0.00 0.00 0.00 100
20260505092740 11 298 11.3 14.5 0.00 0.00 0.00 100
20260505092315 11 265 0.0 14.5 0.00 0.00 0.00 100
20260505092240 11 265 0.0 14.5 0.00 0.00 0.00 100
20260505091740 12 236 0.0 19.3 0.00 0.00 0.00 100
20260505091240 11 261 0.0 14.5 0.00 0.00 0.00 100
20260505090740 11 229 0.0 6.4 0.00 0.00 0.00 100
20260505090325 11 291 0.0 4.8 0.00 0.00 0.00 100
20260505090240 11 291 0.0 4.8 0.00 0.00 0.00 100
20260505085740 11 307 0.0 6.4 0.00 0.00 0.00 100
20260505085453 12 293 0.0 6.4 0.00 0.00 0.00 100
20260505085240 12 293 0.0 6.4 0.00 0.00 0.00 100
20260505084740 12 310 6.4 11.3 0.00 0.00 0.00 100
20260505084240 12 298 6.4 11.3 0.00 0.00 0.00 100
20260505083911 11 265 8.0 12.9 0.00 0.00 0.00 100
20260505083740 11 265 8.0 12.9 0.00 0.00 0.00 100
20260505083240 12 299 4.8 8.0 0.00 0.00 0.00 100
20260505082740 12 295 0.0 3.2 0.00 0.00 0.00 100
20260505082240 12 295 0.0 0.0 0.00 0.00 0.00 100
20260505081740 11 295 0.0 0.0 0.00 0.00 0.00 100
20260505081240 11 295 0.0 0.0 0.00 0.00 0.00 100
20260505080740 11 295 0.0 0.0 0.00 0.00 0.00 100
20260505080240 11 295 0.0 0.0 0.00 0.00 0.00 100
20260505075740 12 295 0.0 0.0 0.00 0.00 0.00 100
20260505075240 11 295 0.0 0.0 0.00 0.00 0.00 100
20260505074740 12 295 0.0 0.0 0.00 0.00 0.00 100
20260505074420 13 268 12.9 19.3 0.00 0.00 0.00 100
20260505074410 14 262 14.5 16.1 0.00 0.00 0.00 100
20260505074240 12 295 0.0 0.0 0.00 0.00 0.00 100
20260505073740 12 295 0.0 14.5 0.00 0.00 0.00 100
20260505073240 12 324 6.4 12.9 0.00 0.00 0.00 100
20260505072740 12 264 11.3 16.1 0.00 0.00 0.00 100
20260505072240 13 285 8.0 11.3 0.00 0.00 0.00 100
20260505071740 12 267 4.8 11.3 0.00 0.00 0.00 100
20260505071240 13 316 6.4 14.5 0.00 0.00 0.00 100
20260505070740 13 239 4.8 9.7 0.00 0.00 0.00 100
20260505070240 13 248 0.0 8.0 0.00 0.00 0.00 100
20260505065740 13 312 4.8 17.7 0.00 0.00 0.00 100
20260505065240 13 340 11.3 24.1 0.00 0.00 0.00 100
20260505064740 13 277 14.5 20.9 0.00 0.00 0.00 100
20260505064240 13 240 6.4 17.7 0.00 0.00 0.00 100
20260505063740 13 265 14.5 16.1 0.00 0.00 0.00 100
20260505063240 13 257 4.8 11.3 0.00 0.00 0.00 100
20260505062740 13 267 8.0 14.5 0.00 0.00 0.00 100
20260505062240 13 215 6.4 14.5 0.00 0.00 0.00 100
20260505061740 14 248 0.0 17.7 0.00 0.00 0.00 100
20260505061240 13 268 12.9 19.3 0.00 0.00 0.00 100
20260505060740 14 262 14.5 16.1 0.00 0.00 0.00 100
20260505060240 13 307 11.3 20.9 0.00 0.00 0.00 100
20260505055740 14 267 14.5 24.1 0.00 0.00 0.00 100
20260505055240 13 257 16.1 30.6 0.00 0.00 0.00 100
20260505054740 14 257 12.9 25.7 0.00 0.00 0.00 100
20260505054323 14 271 17.7 25.7 0.00 0.00 0.00 100
20260505054240 14 271 17.7 25.7 0.00 0.00 0.00 100
20260505053740 15 270 17.7 27.4 0.00 0.00 0.00 100
20260505053313 14 277 20.9 27.4 0.00 0.00 0.00 100
20260505053240 14 277 20.9 27.4 0.00 0.00 0.00 100
20260505052740 15 261 8.0 27.4 0.00 0.00 0.00 100
20260505052240 14 271 16.1 22.5 0.00 0.00 0.00 100
20260505051830 14 285 11.3 29.0 0.00 0.00 0.00 100
20260505051740 14 285 11.3 29.0 0.00 0.00 0.00 100
20260505051240 15 341 4.8 24.1 0.00 0.00 0.00 100
20260505050740 14 307 6.4 19.3 0.00 0.00 0.00 100
20260505050240 14 277 6.4 14.5 0.00 0.00 0.00 100
20260505041740 16 268 9.7 19.3 0.00 0.00 0.00 100
20260505041240 15 274 14.5 16.1 0.00 0.00 0.00 100
20260505040740 15 286 0.0 14.5 0.00 0.00 0.00 100
20260505040636 15 258 12.9 14.5 0.00 0.00 0.00 100
20260505040241 15 258 12.9 14.5 0.00 0.00 0.00 100
20260505035824 16 291 0.0 0.0 0.00 0.00 0.00 100
20260505035814 16 291 0.0 0.0 0.00 0.00 0.00 100
20260505035802 17 291 0.0 0.0 0.00 0.00 0.00 100
20260505035740 16 315 8.0 14.5 0.00 0.00 0.00 100
20260505035240 16 261 9.7 12.9 0.00 0.00 0.00 100
20260505034740 16 262 4.8 17.7 0.00 0.00 0.00 100
20260505034240 16 295 11.3 19.3 0.00 0.00 0.00 100
20260505033740 16 246 11.3 14.5 0.00 0.00 0.00 100
20260505033240 16 284 4.8 17.7 0.00 0.00 0.00 100
20260505032740 16 291 6.4 19.3 0.00 0.00 0.00 100
20260505032316 23 261 0.0 9.7 0.00 0.00 0.00 100
20260505032240 17 303 6.4 14.5 0.00 0.00 0.00 100
20260505031740 16 358 9.7 14.5 0.00 0.00 0.00 100
20260505031240 16 281 8.0 16.1 0.00 0.00 0.00 100
20260505030740 16 278 0.0 14.5 0.00 0.00 0.00 100
20260505030240 16 358 9.7 14.5 0.00 0.00 0.00 100
20260505025740 16 206 8.0 12.9 0.00 0.00 0.00 100
20260505025240 16 254 4.8 11.3 0.00 0.00 0.00 100
20260505024740 16 275 9.7 12.9 0.00 0.00 0.00 100
20260505024240 16 291 0.0 0.0 0.00 0.00 0.00 100
20260505023740 16 291 0.0 0.0 0.00 0.00 0.00 100
20260505023240 16 291 0.0 0.0 0.00 0.00 0.00 100
20260505022740 16 291 0.0 0.0 0.00 0.00 0.00 100
20260505022240 16 291 0.0 0.0 0.00 0.00 0.00 100
20260505021740 16 291 0.0 0.0 0.00 0.00 0.00 100
20260505021240 16 291 0.0 0.0 0.00 0.00 0.00 100
20260505020740 17 291 0.0 0.0 0.00 0.00 0.00 100
20260505020617 17 291 0.0 0.0 0.00 0.00 0.00 100
20260505020611 17 291 0.0 0.0 0.00 0.00 0.00 100
20260505020603 17 291 0.0 0.0 0.00 0.00 0.00 100
20260505020240 17 291 0.0 0.0 0.00 0.00 0.00 100
20260505015740 17 291 0.0 0.0 0.00 0.00 0.00 100
20260505015240 17 291 0.0 0.0 0.00 0.00 0.00 100
20260505014740 17 291 0.0 0.0 0.00 0.00 0.00 100
20260505014240 17 291 0.0 0.0 0.00 0.00 0.00 100
20260505014117 22 240 6.4 14.5 0.00 0.00 0.00 100
20260505014109 22 344 4.8 12.9 0.00 0.00 0.00 100
20260505013740 18 291 0.0 0.0 0.00 0.00 0.00 100
20260505013240 18 291 0.0 0.0 0.00 0.00 0.00 100
20260505012740 18 291 0.0 0.0 0.00 0.00 0.00 100
20260505012240 18 291 0.0 0.0 0.00 0.00 0.00 100
20260505011740 18 291 0.0 0.0 0.00 0.00 0.00 100
20260505011240 19 291 0.0 11.3 0.00 0.00 0.00 100
20260505010740 19 279 0.0 8.0 0.00 0.00 0.00 100
20260505010240 19 265 8.0 12.9 0.00 0.00 0.00 100
20260505005740 20 261 4.8 17.7 0.00 0.00 0.00 100
20260505005240 20 277 9.7 14.5 0.00 0.00 0.00 100
20260505004740 20 312 0.0 0.0 0.00 0.00 0.00 100
20260505004240 20 312 0.0 19.3 0.00 0.00 0.00 100
20260505003740 20 233 0.0 12.9 0.00 0.00 0.00 100
20260505003240 20 289 0.0 9.7 0.00 0.00 0.00 100
20260505002741 20 288 0.0 8.0 0.00 0.00 0.00 100
20260505002240 20 288 0.0 9.7 0.00 0.00 0.00 100
20260505001741 20 317 0.0 14.5 0.00 0.00 0.00 100
20260505001240 20 240 11.3 12.9 0.00 0.00 0.00 100
20260505000740 21 293 0.0 16.1 0.00 0.00 0.00 100
20260505000240 20 265 4.8 16.1 0.00 0.00 0.00 100
20260504235741 21 275 8.0 19.3 0.00 0.00 0.00 100
20260504235241 20 298 6.4 11.3 0.00 0.00 0.00 100
20260504234741 21 343 8.0 14.5 0.00 0.00 0.00 100
20260504234241 21 16 8.0 17.7 0.00 0.00 0.00 100
20260504233741 20 16 8.0 14.5 0.00 0.00 0.00 100
20260504233241 21 279 3.2 11.3 0.00 0.00 0.00 100
20260504232741 21 296 8.0 16.1 0.00 0.00 0.00 100
20260504232241 21 275 0.0 22.5 0.00 0.00 0.00 100
20260504231741 20 286 0.0 16.1 0.00 0.00 0.00 100
20260504231241 21 291 4.8 35.4 0.00 0.00 0.00 100
20260504230741 22 289 17.7 17.7 0.00 0.00 0.00 100
20260504230241 22 202 0.0 14.5 0.00 0.00 0.00 100
20260504225741 22 271 3.2 14.5 0.00 0.00 0.00 100
20260504225241 21 317 6.4 16.1 0.00 0.00 0.00 100
20260504224741 22 22 12.9 14.5 0.00 0.00 0.00 100
20260504224241 22 255 9.7 17.7 0.00 0.00 0.00 100
20260504223741 22 285 8.0 17.7 0.00 0.00 0.00 100
20260504223241 22 317 11.3 19.3 0.00 0.00 0.00 100
20260504222741 23 299 17.7 20.9 0.00 0.00 0.00 100
20260504222241 22 240 6.4 14.5 0.00 0.00 0.00 100
20260504221741 22 344 4.8 12.9 0.00 0.00 0.00 100
20260504221241 22 241 3.2 24.1 0.00 0.00 0.00 100
20260504220939 11 147 0.0 0.0 0.00 0.00 0.00 100
20260504220929 11 147 0.0 0.0 0.00 0.00 0.00 100
20260504220741 23 261 0.0 9.7 0.00 0.00 0.00 100
20260504220241 22 248 0.0 19.3 0.00 0.00 0.00 100
20260504215741 23 285 12.9 27.4 0.00 0.00 0.00 100
20260504215241 23 255 8.0 29.0 0.00 0.00 0.00 100
20260504214741 23 343 0.0 20.9 0.00 0.00 0.00 100
20260504214241 22 309 9.7 20.9 0.00 0.00 0.00 100
20260504213741 22 47 12.9 20.9 0.00 0.00 0.00 100
20260504213241 22 281 9.7 19.3 0.00 0.00 0.00 100
20260504212741 23 213 0.0 12.9 0.00 0.00 0.00 100
20260504212241 23 279 0.0 11.3 0.00 0.00 0.00 100
20260504211741 22 246 11.3 22.5 0.00 0.00 0.00 100
20260504211241 23 270 9.7 19.3 0.00 0.00 0.00 100
20260504210741 23 223 11.3 17.7 0.00 0.00 0.00 100
20260504210241 23 303 6.4 14.5 0.00 0.00 0.00 100
20260504205741 22 302 9.7 27.4 0.00 0.00 0.00 100
20260504205241 22 351 12.9 16.1 0.00 0.00 0.00 100
20260504204741 22 279 4.8 24.1 0.00 0.00 0.00 100
20260504204458 22 358 16.1 30.6 0.00 0.00 0.00 100
20260504204241 22 264 8.0 20.9 0.00 0.00 0.00 100
20260504203741 22 343 6.4 22.5 0.00 0.00 0.00 100
20260504203241 22 310 8.0 27.4 0.00 0.00 0.00 100
20260504202741 22 358 16.1 30.6 0.00 0.00 0.00 100
20260504202241 23 326 11.3 24.1 0.00 0.00 0.00 100
20260504201741 23 181 0.0 14.5 0.00 0.00 0.00 100
20260504201314 22 262 12.9 16.1 0.00 0.00 0.00 100
20260504201241 22 262 12.9 16.1 0.00 0.00 0.00 100
20260504200741 22 282 6.4 19.3 0.00 0.00 0.00 100
20260504200241 23 291 8.0 19.3 0.00 0.00 0.00 100
20260504195741 23 300 11.3 22.5 0.00 0.00 0.00 100
20260504195241 23 250 4.8 22.5 0.00 0.00 0.00 100
20260504194741 23 278 9.7 17.7 0.00 0.00 0.00 100
20260504194241 22 258 4.8 19.3 0.00 0.00 0.00 100
20260504193741 22 279 6.4 16.1 0.00 0.00 0.00 100
20260504193241 22 310 6.4 19.3 0.00 0.00 0.00 100
20260504192741 22 267 11.3 17.7 0.00 0.00 0.00 100
20260504192241 22 291 6.4 22.5 0.00 0.00 0.00 100
20260504191741 21 254 8.0 22.5 0.00 0.00 0.00 100
20260504191241 22 313 11.3 19.3 0.00 0.00 0.00 100
20260504190741 22 255 11.3 25.7 0.00 0.00 0.00 100
20260504190241 22 279 14.5 19.3 0.00 0.00 0.00 100
20260504185741 22 272 16.1 22.5 0.00 0.00 0.00 100
20260504185241 21 236 16.1 29.0 0.00 0.00 0.00 100
20260504184741 21 274 29.0 29.0 0.00 0.00 0.00 100
20260504184639 21 251 8.0 17.7 0.00 0.00 0.00 100
20260504184241 21 229 0.0 14.5 0.00 0.00 0.00 100
20260504183741 21 255 0.0 12.9 0.00 0.00 0.00 100
20260504183241 21 264 0.0 17.7 0.00 0.00 0.00 100
20260504182741 21 251 8.0 17.7 0.00 0.00 0.00 100
20260504182241 21 234 0.0 20.9 0.00 0.00 0.00 100
20260504181741 21 293 17.7 24.1 0.00 0.00 0.00 100
20260504181241 21 329 6.4 19.3 0.00 0.00 0.00 100
20260504180741 21 307 9.7 22.5 0.00 0.00 0.00 100
20260504180241 21 212 0.0 16.1 0.00 0.00 0.00 100
20260504175741 20 275 12.9 20.9 0.00 0.00 0.00 100
20260504175241 20 278 8.0 17.7 0.00 0.00 0.00 100
20260504174741 20 298 8.0 16.1 0.00 0.00 0.00 100
20260504174241 20 264 11.3 19.3 0.00 0.00 0.00 100
20260504173741 19 271 11.3 22.5 0.00 0.00 0.00 100
20260504173241 20 267 16.1 17.7 0.00 0.00 0.00 100
20260504172741 20 267 4.8 16.1 0.00 0.00 0.00 100
20260504172241 20 240 9.7 17.7 0.00 0.00 0.00 100
20260504171741 20 241 11.3 20.9 0.00 0.00 0.00 100
20260504171241 18 270 6.4 14.5 0.00 0.00 0.00 100
20260504170741 18 288 8.0 17.7 0.00 0.00 0.00 100
20260504170241 19 260 4.8 9.7 0.00 0.00 0.00 100
20260504160241 16 310 0.0 11.3 0.00 0.00 0.00 100
20260504150741 14 147 0.0 0.0 0.00 0.00 0.00 100
20260504150241 15 147 0.0 0.0 0.00 0.00 0.00 100
20260504141241 12 147 0.0 0.0 0.00 0.00 0.00 100
20260504140741 12 147 0.0 0.0 0.00 0.00 0.00 100
20260504140241 12 147 0.0 0.0 0.00 0.00 0.00 100
20260504130741 11 147 0.0 0.0 0.00 0.00 0.00 100
20260504130241 11 147 0.0 0.0 0.00 0.00 0.00 100
20260504120241 11 175 0.0 6.4 0.00 0.00 0.00 100
20260504110503 12 120 8.0 12.9 0.00 0.00 0.00 100
20260504110445 12 101 0.0 11.3 0.00 0.00 0.00 100
20260504110438 12 73 0.0 12.9 0.00 0.00 0.00 100
20260504110426 12 120 8.0 12.9 0.00 0.00 0.00 100
20260504110241 12 101 0.0 11.3 0.00 0.00 0.00 100